Home > Weather > Atlanta > Past weeks

Flag for U.S.A. Weather for the Past 2 Weeks in Atlanta, Georgia, U.S.A.

Now
35 °F

Sunny.


Feels Like: 25 °F
Forecast: 24 / 38 °F
Wind: 16 mph from West

Location: Fulton County Airport-Brown Field

Current Time: Feb 10, 2016 at 3:03:57 PM

Latest Report: Feb 10, 2016 at 1:53 PM


Visibility: 10 mi

Pressure: 30.13 "Hg

Humidity: 32%

Dew point: 8 °F

Location of AtlantaLocation

Historic Weather in Atlanta — Graph

°F

Atlanta Temperature Yesterday

Maximum temperature yesterday: 38 °F (at 12:53 AM)
Minimum temperature yesterday: 27 °F (at 11:53 PM)
Average temperature yesterday: 33 °F

High & Low Weather Summary for the Past Weeks

 TemperatureHumidityPressure
High76 °F (Feb 2, 3:53 PM)100% (Jan 29, 3:53 AM)30.43 "Hg (Jan 29, 3:53 AM)
Low17 °F (Jan 29, 4:53 AM)21% (Feb 5, 2:53 PM)29.74 "Hg (Feb 8, 1:53 PM)
Average46 °F64%30.05 "Hg
* Reported Jan 26 1:53 PM — Feb 10 1:53 PM, Atlanta, Weather by CustomWeather, © 2016

Note: Actual official high and low records may vary slightly from our data, if they occured in-between our weather recording intervals... More about our weather records

Advertising

Atlanta Weather History for the Previous 24 Hours

 ConditionsComfort  
Time TempWeatherWind HumidityBarometerVisibility
1:53 PM
Wed, Feb 10
35 °FSunny.16 mph32%30.13 "Hg10 mi
12:53 PM33 °FSunny.10 mph38%30.15 "Hg10 mi
11:53 AM30 °FScattered clouds.12 mph41%30.17 "Hg10 mi
10:53 AM28 °FPartly sunny.16 mph45%30.19 "Hg10 mi
9:53 AM26 °FOvercast.16 mph48%30.17 "Hg10 mi
8:53 AM25 °FOvercast.18 mph55%30.17 "Hg10 mi
7:53 AM23 °FPartly sunny.14 mph57%30.14 "Hg10 mi
6:53 AM23 °FPassing clouds.9 mph53%30.12 "Hg10 mi
5:53 AM24 °FPassing clouds.10 mph50%30.10 "Hg10 mi
4:53 AM25 °FOvercast.15 mph53%30.09 "Hg10 mi
3:53 AM26 °FOvercast.10 mph57%30.06 "Hg10 mi
2:53 AM26 °FOvercast.14 mph60%30.05 "Hg10 mi
1:53 AM26 °FOvercast.13 mph63%30.04 "Hg10 mi
1:02 AM27 °FMostly cloudy.10 mph61%30.02 "Hg10 mi
12:53 AM27 °FMostly cloudy.13 mph61%30.04 "Hg10 mi
11:53 PM
Tue, Feb 9
27 °FPassing clouds.8 mph63%30.03 "Hg10 mi
10:53 PM28 °FClear.8 mph58%30.03 "Hg10 mi
9:53 PM29 °FPassing clouds.6 mph61%30.03 "Hg10 mi
8:53 PM29 °FPassing clouds.6 mph61%30.02 "Hg10 mi
7:53 PM30 °FOvercast.10 mph66%30.01 "Hg10 mi
6:53 PM32 °FMostly cloudy.10 mph56%29.98 "Hg10 mi
5:53 PM32 °FCloudy.10 mph59%29.96 "Hg10 mi
4:53 PM33 °FOvercast.10 mph49%29.93 "Hg10 mi
3:53 PM33 °FMostly cloudy.18 mph54%29.90 "Hg10 mi
3:00 PM32 °FLight snow. Mostly cloudy.17 mph69%29.86 "Hg6 mi
Weather by CustomWeather, © 2016

See weather overviewHow to use our weather pages